Weather History for Lacon, IL

Change the Weather History Date:

Friday, January 18, 2013

  Actual Average (KPIA) Record (KPIA)
Temperature  
Mean Temperature 32 °F 25 °F  
Max Temperature 45 °F 33 °F 59 °F (1951)
Min Temperature 18 °F 17 °F -19 °F (1930)
Degree Days  
Heating Degree Days 34 40  
Month to date heating degree days 720  
Since 1 July heating degree days 2998  
Cooling Degree Days 0 0  
Month to date cooling degree days 0  
Year to date cooling degree days 0  
Moisture  
Dew Point 24 °F    
Average Humidity 65    
Maximum Humidity 87    
Minimum Humidity 52    
Precipitation  
Precipitation 0.00 in 0.05 in 1.01 in (1949)
Month to date precipitation 1.10  
Year to date precipitation 1.10  
Snow  
Snow 0.00 in 0.20 in 9.00 in (1918)
Month to date snowfall 4.0  
Since 1 July snowfall 12.2  
Snow Depth -    
Sea Level Pressure  
Sea Level Pressure 30.20 in    
Wind  
Wind Speed 9 mph (South)    
Max Wind Speed 24 mph    
Max Gust Speed 32 mph    
Visibility 10 miles    
Events      
T = Trace of Precipitation, MM = Missing Value Source: NWS Daily Summary

Daily Weather History Graph

Daily Weather History Graph

Search for Another Location

Airport:

Trip Planner

Search our weather history database for the weather conditions in past years. The results will help you decide how hot, cold, wet, or windy it might be!

Date:

Astronomy

Jan. 18, 2013 Rise Set
Actual Time 7:18 AM CST 4:57 PM CST
Civil Twilight 6:48 AM CST 5:27 PM CST
Nautical Twilight 6:14 AM CST 6:01 PM CST
Astronomical Twilight 5:42 AM CST 6:34 PM CST
Moon 10:53 AM CST (1/18) No Moon Set
Length of Visible Light 10h 39m
Length of Day
9h 39m
Waxing Crescent, 47% of the Moon is Illuminated
Jan 18
Waxing Crescent
Jan 18
First Quarter
Jan 26
Full
Feb 3
Last Quarter
Feb 10
New

Hourly Weather History & Observations

Time (CST) Temp. Windchill Dew Point Humidity Pressure Visibility Wind Dir Wind Speed Gust Speed Precip Events Conditions
12:15 AM 18.9 °F 13.7 °F 15.4 °F 87% 30.43 in 10.0 mi SSE 3.5 mph - N/A   Unknown
12:35 AM 20.7 °F - 15.8 °F 81% 30.43 in 10.0 mi Calm Calm - N/A   Unknown
12:55 AM 21.9 °F - 16.0 °F 78% 30.44 in 10.0 mi Calm Calm - N/A   Scattered Clouds
1:15 AM 21.9 °F 17.2 °F 16.7 °F 80% 30.43 in 10.0 mi SE 3.5 mph - N/A   Clear
1:35 AM 22.6 °F 18.0 °F 17.6 °F 81% 30.44 in 10.0 mi South 3.5 mph - N/A   Scattered Clouds
1:55 AM 23.4 °F - 17.8 °F 79% 30.44 in 10.0 mi Calm Calm - N/A   Overcast
2:15 AM 23.5 °F 17.6 °F 18.1 °F 80% 30.44 in 10.0 mi South 4.6 mph - N/A   Overcast
2:35 AM 23.9 °F - 18.3 °F 79% 30.44 in 10.0 mi Calm Calm - N/A   Scattered Clouds
2:55 AM 24.3 °F - 18.3 °F 78% 30.44 in 10.0 mi Calm Calm - N/A   Clear
3:15 AM 24.3 °F - 18.5 °F 79% 30.43 in 10.0 mi Calm Calm - N/A   Clear
3:35 AM 24.3 °F 19.9 °F 19.2 °F 81% 30.43 in 10.0 mi South 3.5 mph - N/A   Clear
3:55 AM 24.4 °F 18.6 °F 19.2 °F 81% 30.41 in 10.0 mi SE 4.6 mph - N/A   Scattered Clouds
4:15 AM 24.6 °F 20.3 °F 19.4 °F 81% 30.41 in 10.0 mi SE 3.5 mph - N/A   Clear
4:35 AM 24.6 °F 18.8 °F 18.1 °F 76% 30.40 in 10.0 mi SE 4.6 mph - N/A   Clear
4:55 AM 23.9 °F 19.5 °F 17.6 °F 77% 30.40 in 10.0 mi SE 3.5 mph - N/A   Clear
5:15 AM 23.7 °F 17.8 °F 17.6 °F 77% 30.39 in 10.0 mi SSE 4.6 mph - N/A   Clear
5:35 AM 24.4 °F 17.5 °F 18.1 °F 77% 30.38 in 10.0 mi SE 5.8 mph - N/A   Clear
5:55 AM 24.3 °F 19.9 °F 17.8 °F 76% 30.38 in 10.0 mi SE 3.5 mph - N/A   Clear
6:15 AM 24.8 °F 16.9 °F 18.3 °F 76% 30.38 in 10.0 mi South 6.9 mph - N/A   Clear
6:35 AM 25.5 °F 17.8 °F 18.7 °F 75% 30.37 in 10.0 mi South 6.9 mph - N/A   Scattered Clouds
6:55 AM 26.1 °F 19.4 °F 19.4 °F 76% 30.38 in 10.0 mi South 5.8 mph - N/A   Mostly Cloudy
7:15 AM 26.4 °F 18.9 °F 19.4 °F 75% 30.36 in 10.0 mi SSE 6.9 mph - N/A   Overcast
7:35 AM 26.4 °F 19.8 °F 19.2 °F 74% 30.36 in 10.0 mi South 5.8 mph - N/A   Mostly Cloudy
7:55 AM 27.3 °F 18.4 °F 19.4 °F 72% 30.35 in 10.0 mi South 9.2 mph - N/A   Scattered Clouds
8:15 AM 28.8 °F 20.9 °F 20.3 °F 71% 30.35 in 10.0 mi South 8.1 mph - N/A   Clear
8:35 AM 30.0 °F 20.5 °F 20.3 °F 67% 30.34 in 10.0 mi South 11.5 mph 18.4 mph N/A   Clear
8:55 AM 31.1 °F 22.4 °F 20.7 °F 65% 30.34 in 10.0 mi South 10.4 mph - N/A   Clear
9:15 AM 32.2 °F 24.4 °F 21.2 °F 64% 30.33 in 10.0 mi South 9.2 mph - N/A   Clear
9:35 AM 33.8 °F 24.3 °F 21.2 °F 60% 30.33 in 10.0 mi South 13.8 mph 21.9 mph N/A   Clear
9:55 AM 35.4 °F 25.3 °F 21.0 °F 56% 30.31 in 10.0 mi South 17.3 mph 26.5 mph N/A   Clear
10:15 AM 36.1 °F 25.9 °F 21.4 °F 55% 30.31 in 10.0 mi South 18.4 mph 26.5 mph N/A   Clear
10:35 AM 36.0 °F 24.7 °F 21.9 °F 57% 30.28 in 10.0 mi South 21.9 mph 31.1 mph N/A   Clear
10:55 AM 37.4 °F 26.6 °F 22.6 °F 55% 30.27 in 10.0 mi South 21.9 mph 29.9 mph N/A   Clear
11:15 AM 39.0 °F 28.3 °F 23.2 °F 53% 30.25 in 10.0 mi South 24.2 mph 32.2 mph N/A   Clear
11:35 AM 40.1 °F 30.7 °F 23.7 °F 52% 30.22 in 10.0 mi South 19.6 mph 31.1 mph N/A   Unknown
11:55 AM 41.0 °F 32.5 °F 24.6 °F 52% 30.20 in 10.0 mi South 17.3 mph 26.5 mph N/A   Unknown
12:15 PM 41.2 °F 32.7 °F 25.3 °F 53% 30.18 in 10.0 mi South 17.3 mph 23.0 mph N/A   Unknown
12:35 PM 41.7 °F 33.1 °F 25.9 °F 53% 30.16 in 10.0 mi South 18.4 mph 26.5 mph N/A   Unknown
12:55 PM 42.3 °F 33.8 °F 26.2 °F 53% 30.13 in 10.0 mi South 18.4 mph 29.9 mph N/A   Unknown
1:15 PM 42.8 °F 34.8 °F 27.0 °F 54% 30.12 in 10.0 mi South 17.3 mph 31.1 mph N/A   Unknown
1:35 PM 44.1 °F 36.2 °F 27.7 °F 53% 30.11 in 10.0 mi South 18.4 mph 29.9 mph N/A   Unknown
1:55 PM 44.4 °F 36.1 °F 28.0 °F 53% 30.09 in 10.0 mi South 20.7 mph 27.6 mph N/A   Unknown
2:15 PM 44.8 °F 36.9 °F 28.4 °F 53% 30.07 in 10.0 mi South 19.6 mph 27.6 mph N/A   Unknown
2:35 PM 44.8 °F 36.4 °F 28.8 °F 53% 30.05 in 10.0 mi South 21.9 mph 31.1 mph N/A   Unknown
2:55 PM 45.0 °F 37.9 °F 29.1 °F 54% 30.04 in 10.0 mi South 16.1 mph 27.6 mph N/A   Unknown
3:15 PM 45.0 °F 37.4 °F 29.3 °F 54% 30.02 in 10.0 mi South 18.4 mph 27.6 mph N/A   Unknown
3:35 PM 45.1 °F 37.3 °F 29.3 °F 54% 30.02 in 10.0 mi South 19.6 mph 27.6 mph N/A   Unknown
3:55 PM 45.0 °F 37.4 °F 29.3 °F 54% 30.01 in 10.0 mi South 18.4 mph 24.2 mph N/A   Unknown
4:15 PM 44.2 °F 36.7 °F 29.3 °F 56% 30.00 in 10.0 mi South 17.3 mph 32.2 mph N/A   Unknown
4:35 PM 43.3 °F 34.7 °F 29.1 °F 57% 29.99 in 10.0 mi South 20.7 mph 28.8 mph N/A   Unknown
4:55 PM 43.2 °F 35.0 °F 28.8 °F 57% 29.99 in 10.0 mi South 18.4 mph 32.2 mph N/A   Unknown
5:15 PM 42.6 °F 33.8 °F 28.4 °F 57% 30.00 in 10.0 mi South 20.7 mph 29.9 mph N/A   Unknown
5:35 PM 42.1 °F 33.9 °F 28.4 °F 58% 30.00 in 10.0 mi South 17.3 mph 24.2 mph N/A   Unknown
5:55 PM 41.7 °F 33.7 °F 28.4 °F 59% 30.00 in 10.0 mi South 16.1 mph 26.5 mph N/A   Unknown
6:15 PM 41.2 °F 32.7 °F 28.4 °F 60% 30.00 in 10.0 mi South 17.3 mph 23.0 mph N/A   Unknown
6:35 PM 40.8 °F 32.0 °F 28.4 °F 61% 30.00 in 10.0 mi South 18.4 mph 32.2 mph N/A   Unknown
6:55 PM 40.3 °F 31.3 °F 28.4 °F 63% 30.01 in 10.0 mi South 18.4 mph 27.6 mph N/A   Unknown
7:35 PM 39.6 °F 30.3 °F 28.4 °F 64% 30.00 in 10.0 mi South 18.4 mph 25.3 mph N/A   Unknown
7:55 PM 39.6 °F 29.7 °F 28.4 °F 64% 30.00 in 10.0 mi South 20.7 mph 28.8 mph N/A   Unknown
8:15 PM 39.2 °F 30.2 °F 28.4 °F 65% 30.00 in 10.0 mi South 17.3 mph 25.3 mph N/A   Unknown
8:35 PM 39.2 °F 30.5 °F 28.2 °F 65% 30.00 in 10.0 mi South 16.1 mph 25.3 mph N/A   Unknown
8:55 PM 39.2 °F 30.2 °F 28.0 °F 64% 29.99 in 10.0 mi South 17.3 mph 24.2 mph N/A   Unknown
9:15 PM 39.6 °F 30.3 °F 27.9 °F 63% 29.99 in 10.0 mi South 18.4 mph 24.2 mph N/A   Unknown
9:35 PM 39.2 °F 30.2 °F 27.7 °F 63% 29.99 in 10.0 mi South 17.3 mph 21.9 mph N/A   Unknown
9:55 PM 39.4 °F 31.1 °F 27.5 °F 62% 29.98 in 10.0 mi South 15.0 mph 20.7 mph N/A   Unknown
10:15 PM 39.6 °F 31.0 °F 27.5 °F 62% 29.98 in 10.0 mi South 16.1 mph 21.9 mph N/A   Unknown
10:35 PM 39.6 °F 31.0 °F 27.3 °F 62% 29.97 in 10.0 mi South 16.1 mph 21.9 mph N/A   Unknown
10:55 PM 39.7 °F 31.2 °F 27.3 °F 61% 29.97 in 10.0 mi South 16.1 mph 21.9 mph N/A   Unknown
11:15 PM 39.9 °F 31.4 °F 27.3 °F 61% 29.97 in 10.0 mi South 16.1 mph 21.9 mph N/A   Unknown
11:35 PM 39.7 °F 31.9 °F 27.3 °F 61% 29.97 in 10.0 mi SSW 13.8 mph 21.9 mph N/A   Unknown
11:55 PM 39.4 °F 31.4 °F 27.3 °F 62% 29.97 in 10.0 mi South 13.8 mph - N/A   Unknown